Find ASUSAT-OSCAR-37

NORAD ID: 26065 Int'l Des: 2000-004 Owner: ASU Country: US operational
LEOCIRCULARRETROGRADE

Live Position

Loading 3D Globe...

About ASUSAT-OSCAR-37

Description loading...

Upcoming Passes

Passes for default location (London). Set your location on the main map for personalized predictions.

Altitude History

Loading altitude history...

Two-Line Element Set

1 26065U 00004E 26106.24201812 .00000066 00000-0 41122-4 0 9994
2 26065 100.1924 35.3297 0035561 207.6338 152.2954 14.38212123374656
Epoch: Apr 16, 2026 • Age: 12 hours

Current Status

Altitude 794.9 km
Velocity 7.45 km/s
Sub-Earth Point 63.74°N, 97.24°W
Launch Date Jan 27, 2000
Age 26.2 years
Type other

Technical Details

Classification Payload
Mass 6.00 kg
Dry Mass 6.00 kg
Total Mass 6.00 kg
Length 0.20 m
Diameter 0.30 m
Span 0.30 m
Shape Cyl
Manufacturer ASU
Bus Type ASUSAT
Phase Status In Orbit
Owner/State ASU/US

Most Searched